Location: Blaschim
(49.7622°N, 14.4533°E)
Time: 09:02:06
(UTC+00:00)

Daily predictions for brighter satellites

Satellite Brightness Start Highest point End
(mag) Time Altitude Azimuth Time Altitude Azimuth Time Altitude Azimuth
Cosmos 614 Rocket 4.5 16:27:06 10° SW 16:32:16 64° WNW 16:37:27 10° NNE
Meteor 1-24 Rocket 4.4 16:27:13 10° SSW 16:32:48 59° WNW 16:38:13 10° N
Cosmos 2228 3.6 16:29:27 10° N 16:33:20 34° ENE 16:37:11 10° SE
Lacrosse 5 rocket 2.2 16:31:13 10° NW 16:34:21 27° N 16:37:31 10° ENE
CZ-4 R/B 3.2 16:32:38 10° E 16:34:33 13° ENE 16:36:28 10° NNE
Cosmos 1655 Rocket 4.1 16:28:54 10° N 16:35:08 59° ENE 16:41:16 10° SSE
COSMO-SKYMED 1 3.4 16:33:02 10° NNE 16:36:55 31° E 16:40:47 10° SSE
Cosmos 1844 Rocket 3.4 16:33:50 10° NNW 16:38:46 31° NE 16:43:40 10° ESE
COBE Rocket 4.0 16:34:19 10° S 16:39:03 78° WSW 16:43:45 10° NNW
Cosmos 540 Rocket 4.5 16:37:54 10° N 16:42:11 26° NE 16:46:27 10° ESE
CZ-4B R/B 4.0 16:38:39 10° ESE 16:43:04 27° ENE 16:47:36 10° N
NOSS 2-1 (E) 4.3 16:40:05 10° NW 16:44:23 71° SW 16:50:23 10° SSE
Cosmos 2227 4.2 16:39:13 10° NNW 16:44:59 69° ENE 16:50:44 10° SE
RESURS DK-1 3.8 16:42:00 10° N 16:45:00 19° NE 16:47:55 10° E
Cosmos 1844 4.5 16:42:52 10° NNW 16:48:04 32° NE 16:53:13 10° ESE
DMSP B5D2-2 4.1 16:43:41 10° NNE 16:48:57 61° ESE 16:54:08 10° S
CZ-4C R/B 4.0 16:47:03 10° NNE 16:50:35 31° E 16:53:55 10° SSE
Cosmos 1184 Rocket 1.8 16:49:14 10° N 16:51:35 66° E 16:53:55 10° SSE
Cosmos 2278 3.8 16:47:56 10° S 16:53:30 59° ESE 16:59:06 10° NE
Cosmos 1544 Rocket 4.0 16:49:14 10° NNW 16:53:33 66° W 16:57:50 10° S
SMAP 4.3 16:49:06 10° S 16:53:35 47° W 16:58:06 10° NNW
COSMOS 2455 3.0 16:48:21 10° SW 16:54:23 79° NW 17:00:28 10° NE
Meteor PRIRODA 4.1 16:51:41 10° S 16:55:12 63° WSW 16:58:45 10° NNW
Lacrosse 5 3.2 16:52:04 10° S 16:55:59 23° SE 16:59:06 13° E
Cosmos 407 Rocket 3.5 16:51:05 10° S 16:56:08 60° ESE 17:01:11 10° NNE
Cosmos 2266 Rocket 4.1 16:50:14 10° N 16:56:36 88° W 17:02:48 10° S
Cosmos 1726 Rocket 4.4 16:53:09 10° N 16:56:51 27° ENE 17:00:33 10° SE
Meteor 1-21 Rocket 4.2 16:52:26 10° S 16:58:02 65° E 17:03:36 10° NNE
Cosmos 2360 Rocket 3.5 16:56:31 10° SE 17:00:19 19° E 17:02:57 14° ENE
Cosmos 2333 Rocket 3.9 16:59:19 10° ESE 17:01:35 12° E 17:01:48 12° E
CZ-4B R/B 3.1 16:57:29 10° S 17:01:36 76° WSW 17:05:31 10° NNW
Okean O Rocket 2.7 16:59:25 10° ESE 17:02:52 23° ENE 17:06:21 10° N
SL-08 R/B 3.5 16:58:02 10° NNE 17:03:00 81° WNW 17:07:57 10° SSW
Cosmos 2278 Rocket 4.1 17:01:06 10° N 17:03:32 13° NNE 17:05:37 11° NE
USA 281 4.3 17:01:58 10° NNE 17:08:04 43° NW 17:14:10 10° WSW
Meteor 2-1 Rocket 4.2 17:02:58 10° N 17:08:48 79° ENE 17:14:28 10° SSE
Cosmos 1140 Rocket 3.5 17:05:19 10° SSW 17:10:31 90° ESE 17:15:43 10° NNE
Cosmos 2322 Rocket 2.9 17:05:52 10° SSE 17:10:43 32° ESE 17:14:56 13° NE
CZ-4 R/B 4.3 17:07:31 10° SSE 17:11:37 82° ENE 17:15:46 10° NNW
Cosmos 1892 3.0 17:08:08 10° SSE 17:11:39 41° E 17:15:13 10° NNE
DELTA 2 DEB (DPAF) 4.4 17:07:51 10° N 17:12:14 70° WNW 17:16:36 10° SSW
Cosmos 1190 Rocket 4.1 17:08:49 10° S 17:13:58 55° ESE 17:19:09 10° NNE
SL-08 ROCKET BODY 4.3 17:09:14 10° N 17:15:08 72° E 17:20:57 10° SSE
SL-4 R/B 1.7 17:12:29 10° W 17:15:58 70° N 17:18:05 23° ENE
Cosmos 1408 2.3 17:15:35 10° S 17:18:58 82° E 17:22:25 10° NNE
SL-16 R/B 2.3 17:18:11 10° S 17:23:40 55° ESE 17:28:59 11° NE
SKYMED 2 3.5 17:20:49 10° NNE 17:25:12 89° ESE 17:29:33 10° SSW
Cosmos 1633 3.5 17:24:41 10° SSE 17:26:54 25° ESE 17:26:54 25° ESE
Cosmos 1340 Rocket 3.3 17:23:50 10° SSW 17:27:39 60° WNW 17:31:33 10° N
Cosmos 1825 2.5 17:25:22 10° SSE 17:28:49 40° E 17:31:09 18° NNE
Cosmos 2058 Rocket 3.7 17:24:55 10° N 17:28:54 33° ENE 17:32:19 13° SE
ATLAS CENTAUR R/B 2.2 17:25:04 10° WSW 17:29:41 55° NW 17:33:25 14° NNE
TRACE 4.5 17:26:13 10° NNE 17:29:53 76° ESE 17:33:32 10° S
PAYLOAD B 4.1 17:26:15 10° SSE 17:31:46 82° ENE 17:37:18 10° NNW
BlueWalker 3 2.3 17:28:59 10° W 17:32:49 56° N 17:34:32 29° NE
ISS -2.3 17:31:53 10° W 17:35:00 34° SSW 17:37:28 14° SSE
Meteor 1-27 4.4 17:29:26 10° N 17:35:06 50° ENE 17:40:39 10° SSE
ATLAS 5 CENTAUR R/B 3.6 17:32:46 10° NW 17:35:28 17° NNW 17:38:07 11° NNE
BREEZE-M DEB (TANK) 3.2 17:33:09 10° WSW 17:36:22 57° S 17:40:31 22° ESE
Cosmos 1607 4.3 17:32:15 10° SW 17:38:20 62° NW 17:43:54 13° NE
Cosmos 1980 Rocket 3.4 17:33:17 10° WSW 17:38:36 40° NW 17:43:59 10° NNE
YAOGAN 1 2.4 17:34:56 10° SSE 17:39:14 76° ENE 17:43:34 10° N
Cosmos 1461 3.7 17:37:31 10° S 17:41:19 33° ESE 17:41:46 32° ESE
CSL-04 Rocket 4.4 17:40:27 28° E 17:41:42 31° ENE 17:46:22 10° N
Nadezhda 2 Rocket 4.4 17:37:00 10° N 17:43:15 77° E 17:49:22 10° SSE
Cosmos 468 Rocket 3.9 17:38:12 10° NNW 17:43:26 82° ENE 17:48:34 10° SSE
Cosmos 2237 4.2 17:41:25 10° SSW 17:47:04 66° ESE 17:51:24 18° NE
Cosmos 1869 3.3 17:44:38 10° N 17:48:26 53° ENE 17:50:12 28° SE
APEX 4.3 17:45:30 10° SSW 17:51:36 83° WNW 17:56:20 15° NNE
Cosmos 1340 3.4 17:48:21 10° N 17:50:52 35° NNE 17:50:52 35° NNE
Meteor 2-12 Rocket 4.3 17:45:59 10° N 17:52:08 83° E 17:58:11 10° SSE
Cosmos 1954 Rocket 3.9 17:47:17 10° SSW 17:52:32 78° ESE 17:56:53 15° NNE
Cosmos 1943 Rocket 4.2 17:51:11 10° N 17:53:21 12° NNE 17:53:43 12° NNE
IRIDIUM 104 4.2 17:55:48 10° N 18:01:03 77° E 18:06:16 10° S
Cosmos 1606 Rocket 4.2 17:57:36 10° NNW 18:01:50 55° W 18:06:03 10° S
Cosmos 1763 Rocket 4.1 17:58:59 10° NNW 18:04:05 57° WSW 18:09:05 10° S
SJ-6B 4.2 18:08:10 26° N 18:08:10 26° N 18:10:05 10° N
CZ-4 R/B 1.4 18:04:44 10° SSE 18:08:51 84° WSW 18:12:59 10° NNW
IGS 5A 3.3 18:10:15 65° NE 18:10:15 65° NE 18:14:10 10° N
IRIDIUM 114 4.2 18:04:55 10° N 18:10:11 90° ENE 18:15:25 10° S
ATLAS 2AS CENTAUR R/B 3.3 18:05:05 10° NW 18:11:56 56° WSW 18:18:21 10° SSE
COSMO-SKYMED 1 4.3 18:09:12 10° N 18:13:05 33° WNW 18:16:57 10° SW
Lacrosse 5 rocket 1.3 18:10:03 10° NW 18:13:08 60° NNW 18:13:08 60° NNW
Cosmos 1892 Rocket 3.5 18:09:41 10° S 18:14:07 87° W 18:17:33 17° N
Cosmos 841 Rocket 3.4 18:09:32 10° NNW 18:14:51 75° ENE 18:16:40 41° SE
IRIDIUM 103 4.4 18:14:06 10° N 18:19:21 77° W 18:24:33 10° S
MINOTAUR 4 R/B 4.4 18:19:36 59° W 18:19:36 59° W 18:22:54 10° SSW
Cosmos 1844 Rocket 3.2 18:17:31 10° NW 18:23:00 58° WSW 18:28:26 10° S
CZ-4B R/B 3.8 18:18:05 10° S 18:23:19 56° WSW 18:28:41 10° NNW
RESURS DK-1 2.5 18:19:17 10° NW 18:23:23 70° WSW 18:23:47 64° SSW
Cosmos 540 Rocket 3.9 18:19:06 10° NNW 18:24:10 59° WSW 18:29:12 10° S
Cosmos 1745 Rocket 3.9 18:25:07 10° N 18:31:26 87° E 18:37:38 10° S
Cosmos 1844 4.3 18:26:51 10° NW 18:32:33 58° WSW 18:37:20 15° S
Okean-O 4.4 18:40:05 22° N 18:40:05 22° N 18:41:45 10° N
Lacrosse 5 1.8 18:33:18 10° SW 18:38:20 86° SW 18:38:20 86° SW
Gblst 52 Del rocket 3.9 18:33:08 10° WSW 18:38:42 90° NNE 18:39:00 81° ENE
Okean O Rocket 2.5 18:34:42 10° S 18:38:55 47° W 18:43:13 10° NNW
Cosmos 1386 Rocket 4.4 18:33:15 10° NNW 18:39:17 78° W 18:45:17 10° S
Cosmos 2360 Rocket 2.2 18:37:57 10° SSW 18:43:36 81° WNW 18:44:47 57° NNE
Cosmos 2333 Rocket 2.3 18:39:12 10° SSW 18:43:54 60° S 18:43:54 60° S
Cosmos 2219 Rocket 3.6 18:39:33 10° S 18:41:44 24° S 18:41:44 24° S
Cosmos 2278 Rocket 3.4 18:44:03 10° NNW 18:47:28 30° N 18:47:28 30° N
Cosmos 1709 Rocket 3.8 18:44:02 10° N 18:50:12 79° ENE 18:50:12 79° ENE
Cosmos 2322 Rocket 2.9 18:49:07 10° SW 18:54:33 51° NW 18:56:48 32° N
SL-4 R/B 3.9 18:51:51 10° WNW 18:53:25 24° WNW 18:53:25 24° WNW
SL-16 R/B 3.7 19:02:59 10° WSW 19:08:04 33° NW 19:10:52 22° N
ATLAS CENTAUR R/B 3.9 19:06:00 10° WNW 19:09:07 18° NNW 19:09:14 18° NNW
BlueWalker 3 4.5 19:07:59 10° WNW 19:09:19 20° WNW 19:09:19 20° WNW
ATLAS 5 CENTAUR R/B 4.2 19:18:30 10° NNW 19:19:29 14° NNW 19:19:29 14° NNW
CSL-04 Rocket 4.5 19:22:03 47° W 19:22:03 47° W 19:27:03 10° NNW
CZ-2C R/B 3.9 19:30:39 66° W 19:30:39 66° W 19:43:04 10° S
Cosmos 1943 Rocket 4.3 19:33:41 10° NNW 19:35:14 18° N 19:35:14 18° N
